C/2020 Y3 ( ATLAS )

Japanese version
Home page
Updated on May 4, 2021

---------------------------------------------------------------------

* Profile

Discovery Date December 28, 2020
Magnitude 18.4 mag
Discoverer Asteroid Terrestrial-Impact Last Alert System (ATLAS) search program

* Pictures

* Orbital Elements

Epoch 2020 Dec. 17.0 TT = JDT 2459200.5
T 2020 Dec. 3.48612 TT                                  Rudenko
q   1.9992452            (2000.0)            P               Q
z  +0.0066038      Peri.  342.04357     -0.93977759     -0.27952801
 +/-0.0000095      Node   191.42672     -0.01784252     -0.53453250
e   0.9867975      Incl.   83.09590     -0.34132055     +0.79758329
From 354 observations 2020 Dec. 28-2021 Apr. 30, mean residual 0".9.

* Magnitudes Graph

        m1 = 12.7 + 5 log d + 10.0 log r

---------------------------------------------------------------------

The orbital elements are published on M.P.E.C. 2021-J28.
The magnitudes graphs are made with Comet for Windows.

---------------------------------------------------------------------

Copyright(C) Seiichi Yoshida (comet@aerith.net). All rights reserved.